Date,TemperatureHighF,TemperatureAvgF,TemperatureLowF,DewpointHighF,DewpointAvgF,DewpointLowF,HumidityHigh,HumidityAvg,HumidityLow,PressureMaxIn,PressureMinIn,WindSpeedMaxMPH,WindSpeedAvgMPH,GustSpeedMaxMPH,PrecipitationSumIn
2013-7-1,87,76,72,75,72,69,96,86,69,30.12,29.98,2,0,8,0.02
2013-7-2,89,77,69,76,71,64,93,82,62,30.23,30.11,1,0,4,0.00
2013-7-3,93,77,65,74,69,62,95,79,53,30.25,30.19,2,0,7,0.00
2013-7-4,96,83,71,76,72,70,97,72,49,30.25,30.15,2,0,7,0.00
2013-7-5,99,85,73,75,72,69,93,69,45,30.21,30.09,2,0,7,0.00
2013-7-6,95,83,71,77,71,67,97,70,47,30.14,30.03,4,0,12,0.00
2013-7-7,99,79,68,78,71,67,98,79,45,30.08,29.96,1,0,5,0.11
2013-7-8,96,80,69,79,70,65,99,76,44,30.11,29.96,2,0,8,0.00
2013-7-9,78,71,66,71,67,65,97,88,77,30.14,30.08,0,0,3,0.00
2013-7-10,91,76,68,76,71,65,97,86,59,30.11,29.84,2,0,8,0.15
2013-7-11,88,76,68,76,72,67,99,87,63,29.98,29.82,0,0,2,0.11
2013-7-12,79,71,65,68,62,58,96,73,62,30.23,29.97,3,0,8,0.00
2013-7-13,78,70,64,73,66,59,96,88,80,30.34,30.23,0,0,2,0.05
2013-7-14,94,81,70,78,72,67,98,76,49,30.34,30.24,2,0,9,0.00
2013-7-15,97,82,69,78,71,66,98,73,42,30.26,30.15,2,0,6,0.00
2013-7-16,96,81,66,75,68,64,99,69,40,30.22,30.15,3,0,10,0.00
2013-7-17,99,84,68,76,70,66,98,69,39,30.22,30.06,1,0,3,0.00
2013-7-18,102,86,74,76,72,68,94,68,39,30.06,29.97,3,0,5,0.00
2013-7-19,100,86,72,78,74,70,98,71,43,30.00,29.78,3,0,11,0.00
2013-7-20,98,83,69,80,73,66,96,74,45,29.87,29.72,6,0,11,0.22
2013-7-21,93,77,66,69,66,60,96,71,42,30.03,29.87,1,0,2,0.00
2013-7-22,90,74,64,72,67,63,99,81,48,30.05,29.92,52,0,6,0.00
2013-7-23,91,74,69,80,71,67,98,92,66,29.92,29.57,2,0,10,1.81
2013-7-24,89,76,67,78,67,57,99,74,46,30.00,29.62,4,0,8,0.01
2013-7-25,67,60,58,59,55,48,97,83,67,30.14,29.99,2,0,8,0.17
2013-7-26,76,65,60,68,62,58,98,90,72,30.09,29.98,2,0,8,0.41
2013-7-27,90,71,56,69,63,56,99,80,44,30.10,30.03,0,0,1,0.00
2013-7-28,92,74,61,71,66,26,99,80,46,30.06,29.99,0,0,2,0.00
2013-7-29,90,74,64,75,68,63,99,84,51,30.09,30.00,2,0,7,0.11
2013-7-30,86,71,58,64,59,54,98,71,43,30.15,30.08,2,0,8,0.00
2013-7-31,90,71,57,66,60,52,99,73,38,30.18,30.08,1,0,4,0.00